Terminal Aerodrome Forecast
Issued by NWS Binghamton, NY

Home | Current Version | Previous Version | Text Only | Print | Product List | Glossary On
Versions: 1 2 3 4 5 6 7 8 9 10 11 12 13 14 15
053
FTUS41 KBGM 261120
TAFAVP
TAF
KAVP 261120Z 2612/2712 VRB03KT P6SM FEW250
     FM261500 22005KT P6SM SCT120
     FM262100 22007KT P6SM SCT050 BKN100
     FM270300 00000KT P6SM FEW100=

USA.gov is the U.S. government's official web portal to all federal, state and local government web resources and services.